TimeCST,TemperatureF,Dew PointF,Humidity,Sea Level PressureIn,VisibilityMPH,Wind Direction,Wind SpeedMPH,Gust SpeedMPH,PrecipitationIn,Events,Conditions,WindDirDegrees,DateUTC
12:53 AM,55.9,52.0,87,30.14,10.0,South,4.6,-,N/A,,Clear,190,2013-12-01 06:53:00
1:53 AM,55.0,51.1,86,30.14,10.0,South,5.8,-,N/A,,Clear,180,2013-12-01 07:53:00
2:53 AM,52.0,48.9,89,30.14,7.0,SE,3.5,-,N/A,,Clear,130,2013-12-01 08:53:00
3:53 AM,54.0,51.1,90,30.12,7.0,South,3.5,-,N/A,,Clear,170,2013-12-01 09:53:00
4:40 AM,55.4,51.8,88,30.12,9.0,Variable,3.5,-,N/A,,Mostly Cloudy,0,2013-12-01 10:40:00
4:53 AM,55.9,52.0,87,30.12,10.0,Variable,3.5,-,N/A,,Overcast,0,2013-12-01 10:53:00
5:23 AM,57.2,53.6,88,30.13,10.0,Variable,5.8,-,N/A,,Overcast,0,2013-12-01 11:23:00
5:53 AM,59.0,54.0,83,30.11,10.0,Variable,5.8,-,N/A,,Overcast,0,2013-12-01 11:53:00
6:53 AM,57.9,54.0,87,30.10,10.0,South,5.8,-,N/A,,Scattered Clouds,180,2013-12-01 12:53:00
7:46 AM,55.4,53.6,94,30.11,7.0,South,5.8,-,N/A,,Mostly Cloudy,170,2013-12-01 13:46:00
7:53 AM,55.9,53.1,90,30.11,8.0,South,5.8,-,N/A,,Mostly Cloudy,170,2013-12-01 13:53:00
8:12 AM,57.2,53.6,88,30.11,9.0,South,5.8,-,N/A,,Scattered Clouds,170,2013-12-01 14:12:00
8:25 AM,57.2,53.6,88,30.11,10.0,South,6.9,-,N/A,,Mostly Cloudy,170,2013-12-01 14:25:00
8:36 AM,57.2,53.6,88,30.11,10.0,South,4.6,-,N/A,,Scattered Clouds,180,2013-12-01 14:36:00
8:53 AM,57.9,54.0,87,30.11,10.0,South,5.8,-,N/A,,Partly Cloudy,170,2013-12-01 14:53:00
9:53 AM,64.9,55.0,70,30.11,10.0,SSW,9.2,-,N/A,,Clear,210,2013-12-01 15:53:00
10:53 AM,66.9,55.0,66,30.09,10.0,SSW,11.5,18.4,N/A,,Clear,210,2013-12-01 16:53:00
11:53 AM,69.1,55.0,61,30.05,10.0,Variable,6.9,21.9,N/A,,Partly Cloudy,0,2013-12-01 17:53:00
12:53 PM,71.1,55.0,57,30.01,10.0,SW,12.7,18.4,N/A,,Partly Cloudy,230,2013-12-01 18:53:00
1:53 PM,69.1,55.0,61,29.98,10.0,SSW,9.2,17.3,N/A,,Clear,210,2013-12-01 19:53:00
2:53 PM,69.1,55.0,61,29.96,10.0,SW,10.4,-,N/A,,Clear,220,2013-12-01 20:53:00
3:53 PM,66.9,55.0,66,29.95,10.0,Variable,5.8,-,N/A,,Scattered Clouds,0,2013-12-01 21:53:00
4:53 PM,66.0,55.0,68,29.93,10.0,South,3.5,-,N/A,,Clear,190,2013-12-01 22:53:00
5:53 PM,64.9,55.0,70,29.93,10.0,South,3.5,-,N/A,,Clear,180,2013-12-01 23:53:00
6:53 PM,63.0,55.0,75,29.92,10.0,SSW,3.5,-,N/A,,Clear,200,2013-12-02 00:53:00
7:53 PM,63.0,55.0,75,29.93,10.0,SSW,3.5,-,N/A,,Clear,200,2013-12-02 01:53:00
8:53 PM,61.0,55.0,81,29.92,10.0,SW,3.5,-,N/A,,Clear,230,2013-12-02 02:53:00
9:53 PM,59.0,54.0,83,29.91,10.0,SSW,3.5,-,N/A,,Clear,210,2013-12-02 03:53:00
10:53 PM,57.9,54.0,87,29.89,10.0,WSW,3.5,-,N/A,,Clear,240,2013-12-02 04:53:00
11:53 PM,55.9,53.1,90,29.89,9.0,West,6.9,-,N/A,,Clear,280,2013-12-02 05:53:00